AAL2226 KAUS-KGLS

Flight info

Callsign AAL2226
Flight time 0h 38m
Altitude 17000
Route HOOKK ILEXY JAYJO
Aircraft CRJ2/M-VGDW/C

Departure

Time 2026-04-23 02:40
Airport Austin Bergstrom International Airport (KAUS)

Arrival

Time 2026-04-23 03:19
Airport Scholes International At Galveston Airport (KGLS)
Time Latitude Longitude Altitude Speed Heading
2026-04-23 02:36 30.19988 -97.65990 489 ft 0 kts
2026-04-23 02:37 30.20001 -97.65990 489 ft 5 kts
2026-04-23 02:37 30.20076 -97.65993 489 ft 16 kts 356°
2026-04-23 02:38 30.20218 -97.65997 489 ft 23 kts
2026-04-23 02:38 30.20350 -97.65988 489 ft 15 kts 37°
2026-04-23 02:38 30.20367 -97.65954 490 ft 0 kts 79°
2026-04-23 02:38 30.20368 -97.65948 490 ft 3 kts 83°
2026-04-23 02:39 30.20369 -97.65897 490 ft 4 kts 90°
2026-04-23 02:39 30.20368 -97.65830 489 ft 13 kts 94°
2026-04-23 02:39 30.20253 -97.65787 487 ft 28 kts 180°
2026-04-23 02:39 30.20193 -97.65786 486 ft 2 kts 178°
2026-04-23 02:40 30.20031 -97.65781 485 ft 66 kts 178°
2026-04-23 02:40 30.19216 -97.65757 530 ft 159 kts 179°
2026-04-23 02:40 30.18122 -97.65797 1577 ft 167 kts 186°
2026-04-23 02:40 30.16994 -97.66065 2711 ft 173 kts 194°
2026-04-23 02:41 30.15930 -97.66425 3971 ft 166 kts 197°
2026-04-23 02:41 30.14777 -97.66665 4917 ft 179 kts 178°
2026-04-23 02:41 30.13619 -97.66174 5786 ft 189 kts 136°
2026-04-23 02:41 30.13084 -97.64828 6709 ft 191 kts 96°
2026-04-23 02:42 30.13192 -97.63445 7951 ft 172 kts 75°
2026-04-23 02:42 30.13604 -97.62126 8660 ft 185 kts 67°
2026-04-23 02:42 30.14145 -97.60750 9418 ft 192 kts 61°
2026-04-23 02:42 30.14903 -97.59458 9938 ft 215 kts 51°
2026-04-23 02:43 30.15993 -97.57989 9857 ft 261 kts 46°
2026-04-23 02:43 30.17279 -97.56683 11233 ft 238 kts 34°
2026-04-23 02:43 30.18617 -97.55883 12596 ft 214 kts 21°
2026-04-23 02:43 30.20081 -97.55280 12793 ft 245 kts 20°
2026-04-23 02:44 30.21574 -97.54133 13002 ft 268 kts 52°
2026-04-23 02:44 30.22405 -97.52247 13842 ft 259 kts 66°
2026-04-23 02:44 30.23010 -97.50512 15316 ft 221 kts 69°
2026-04-23 02:44 30.23528 -97.48850 15672 ft 232 kts 71°
2026-04-23 02:45 30.24117 -97.47028 15747 ft 254 kts 66°
2026-04-23 02:45 30.24872 -97.45094 15925 ft 270 kts 64°
2026-04-23 02:45 30.25713 -97.43110 16167 ft 283 kts 63°
2026-04-23 02:45 30.26624 -97.41041 16460 ft 292 kts 62°
2026-04-23 02:46 30.27565 -97.38940 16776 ft 300 kts 62°
2026-04-23 02:46 30.28550 -97.36758 16854 ft 315 kts 62°
2026-04-23 02:46 30.29597 -97.34447 16865 ft 331 kts 62°
2026-04-23 02:46 30.30683 -97.32049 16863 ft 343 kts 62°
2026-04-23 02:47 30.31800 -97.29584 16861 ft 353 kts 62°
2026-04-23 02:47 30.32957 -97.27028 16860 ft 362 kts 62°
2026-04-23 02:47 30.34141 -97.24413 16859 ft 370 kts 62°
2026-04-23 02:47 30.35308 -97.21769 16850 ft 377 kts 67°
2026-04-23 02:48 30.35795 -97.18804 16857 ft 381 kts 90°
2026-04-23 02:48 30.35697 -97.15700 16861 ft 386 kts 93°
2026-04-23 02:48 30.35539 -97.12574 16857 ft 391 kts 94°
2026-04-23 02:48 30.35363 -97.09444 16856 ft 394 kts 94°
2026-04-23 02:49 30.35179 -97.06248 16855 ft 397 kts 94°
2026-04-23 02:49 30.34994 -97.03067 16853 ft 397 kts 94°
2026-04-23 02:49 30.34808 -96.99889 16852 ft 395 kts 94°
2026-04-23 02:49 30.34622 -96.96735 16852 ft 394 kts 94°
2026-04-23 02:50 30.34435 -96.93573 16852 ft 393 kts 94°
2026-04-23 02:50 30.34250 -96.90444 16852 ft 392 kts 94°
2026-04-23 02:50 30.34062 -96.87297 16853 ft 392 kts 94°
2026-04-23 02:50 30.33874 -96.84158 16894 ft 390 kts 94°
2026-04-23 02:51 30.33242 -96.81152 16973 ft 387 kts 115°
2026-04-23 02:51 30.31833 -96.78490 17009 ft 386 kts 123°
2026-04-23 02:51 30.30354 -96.75957 17001 ft 386 kts 124°
2026-04-23 02:51 30.28817 -96.73385 17000 ft 386 kts 124°
2026-04-23 02:52 30.27279 -96.70828 17000 ft 387 kts 124°
2026-04-23 02:52 30.25760 -96.68311 17000 ft 387 kts 124°
2026-04-23 02:52 30.24210 -96.65745 17000 ft 387 kts 124°
2026-04-23 02:52 30.22668 -96.63195 17000 ft 387 kts 124°
2026-04-23 02:53 30.21126 -96.60645 17000 ft 387 kts 124°
2026-04-23 02:53 30.19587 -96.58103 17000 ft 387 kts 125°
2026-04-23 02:53 30.18063 -96.55588 17000 ft 387 kts 125°
2026-04-23 02:53 30.16522 -96.53046 17000 ft 387 kts 125°
2026-04-23 02:54 30.14961 -96.50472 17000 ft 387 kts 125°
2026-04-23 02:54 30.13438 -96.47962 17000 ft 387 kts 125°
2026-04-23 02:54 30.11888 -96.45410 17000 ft 387 kts 124°
2026-04-23 02:54 30.10342 -96.42866 17000 ft 387 kts 125°
2026-04-23 02:55 30.08795 -96.40321 17000 ft 387 kts 125°
2026-04-23 02:55 30.07248 -96.37779 17000 ft 387 kts 125°
2026-04-23 02:55 30.05715 -96.35262 17000 ft 387 kts 125°
2026-04-23 02:55 30.04162 -96.32712 17000 ft 387 kts 125°
2026-04-23 02:56 30.02614 -96.30174 17000 ft 387 kts 125°
2026-04-23 02:56 30.01067 -96.27638 17000 ft 387 kts 125°
2026-04-23 02:56 29.99513 -96.25092 17000 ft 387 kts 125°
2026-04-23 02:56 29.97970 -96.22566 17000 ft 387 kts 125°
2026-04-23 02:57 29.96415 -96.20021 17000 ft 387 kts 125°
2026-04-23 02:57 29.94871 -96.17497 17000 ft 387 kts 125°
2026-04-23 02:57 29.93323 -96.14967 17000 ft 387 kts 125°
2026-04-23 02:57 29.91766 -96.12424 17000 ft 387 kts 125°
2026-04-23 02:58 29.90216 -96.09893 17000 ft 387 kts 125°
2026-04-23 02:58 29.88674 -96.07377 17000 ft 387 kts 125°
2026-04-23 02:58 29.87110 -96.04827 17000 ft 387 kts 125°
2026-04-23 02:58 29.85562 -96.02306 17000 ft 387 kts 125°
2026-04-23 02:59 29.84012 -95.99781 17000 ft 387 kts 125°
2026-04-23 02:59 29.82448 -95.97237 17000 ft 387 kts 125°
2026-04-23 02:59 29.80891 -95.94704 17000 ft 387 kts 125°
2026-04-23 02:59 29.79351 -95.92203 16999 ft 387 kts 125°
2026-04-23 03:00 29.77797 -95.89677 16998 ft 385 kts 125°
2026-04-23 03:00 29.76266 -95.87193 16998 ft 383 kts 125°
2026-04-23 03:00 29.74722 -95.84689 16998 ft 381 kts 125°
2026-04-23 03:00 29.73194 -95.82210 16999 ft 380 kts 125°
2026-04-23 03:01 29.71675 -95.79750 16999 ft 379 kts 125°
2026-04-23 03:01 29.70158 -95.77294 16997 ft 374 kts 125°
2026-04-23 03:01 29.68670 -95.74886 16986 ft 367 kts 125°
2026-04-23 03:01 29.67189 -95.72491 16599 ft 371 kts 125°
2026-04-23 03:02 29.65689 -95.70067 16106 ft 372 kts 125°
2026-04-23 03:02 29.64190 -95.67645 15601 ft 368 kts 125°
2026-04-23 03:02 29.62731 -95.65289 15103 ft 363 kts 125°
2026-04-23 03:02 29.61271 -95.62934 14588 ft 355 kts 125°
2026-04-23 03:03 29.59883 -95.60696 14077 ft 342 kts 125°
2026-04-23 03:03 29.58525 -95.58506 13566 ft 331 kts 125°
2026-04-23 03:03 29.57221 -95.56405 13038 ft 315 kts 125°
2026-04-23 03:03 29.55995 -95.54431 12525 ft 299 kts 125°
2026-04-23 03:04 29.54813 -95.52530 12012 ft 288 kts 125°
2026-04-23 03:04 29.53677 -95.50701 11505 ft 279 kts 125°
2026-04-23 03:04 29.52560 -95.48905 10996 ft 273 kts 125°
2026-04-23 03:04 29.51480 -95.47170 10496 ft 267 kts 125°
2026-04-23 03:05 29.50411 -95.45452 9980 ft 259 kts 125°
2026-04-23 03:05 29.49387 -95.43809 9476 ft 253 kts 125°
2026-04-23 03:05 29.48371 -95.42178 8967 ft 248 kts 125°
2026-04-23 03:05 29.47381 -95.40590 8465 ft 244 kts 125°
2026-04-23 03:06 29.46418 -95.39043 7966 ft 240 kts 125°
2026-04-23 03:06 29.45455 -95.37501 7420 ft 238 kts 125°
2026-04-23 03:06 29.44496 -95.35963 6800 ft 240 kts 125°
2026-04-23 03:06 29.43523 -95.34404 6176 ft 241 kts 126°
2026-04-23 03:07 29.42553 -95.32850 5555 ft 241 kts 126°
2026-04-23 03:07 29.41587 -95.31303 4937 ft 241 kts 126°
2026-04-23 03:07 29.40605 -95.29730 4307 ft 241 kts 126°
2026-04-23 03:07 29.39636 -95.28181 3686 ft 240 kts 126°
2026-04-23 03:08 29.38679 -95.26651 3119 ft 237 kts 126°
2026-04-23 03:08 29.37760 -95.25185 3103 ft 213 kts 126°
2026-04-23 03:08 29.36938 -95.23870 3098 ft 195 kts 126°
2026-04-23 03:08 29.36180 -95.22658 3101 ft 183 kts 126°
2026-04-23 03:09 29.35460 -95.21509 3103 ft 174 kts 126°
2026-04-23 03:09 29.34759 -95.20391 3108 ft 168 kts 126°
2026-04-23 03:09 29.34086 -95.19317 3111 ft 165 kts 126°
2026-04-23 03:09 29.33422 -95.18256 3112 ft 162 kts 126°
2026-04-23 03:10 29.32892 -95.17149 3110 ft 160 kts 98°
2026-04-23 03:10 29.33103 -95.15939 3111 ft 158 kts 54°
2026-04-23 03:10 29.33785 -95.14945 3132 ft 162 kts 52°
2026-04-23 03:10 29.34503 -95.13906 3134 ft 172 kts 51°
2026-04-23 03:11 29.35260 -95.12837 3166 ft 176 kts 51°
2026-04-23 03:11 29.36056 -95.11728 3130 ft 181 kts 50°
2026-04-23 03:11 29.36855 -95.10625 3120 ft 182 kts 50°
2026-04-23 03:11 29.37674 -95.09500 3118 ft 182 kts 50°
2026-04-23 03:12 29.38480 -95.08398 3117 ft 182 kts 50°
2026-04-23 03:12 29.39295 -95.07285 3117 ft 182 kts 50°
2026-04-23 03:12 29.40114 -95.06168 3117 ft 181 kts 50°
2026-04-23 03:12 29.40919 -95.05069 3126 ft 179 kts 50°
2026-04-23 03:13 29.41690 -95.04018 3131 ft 170 kts 50°
2026-04-23 03:13 29.42357 -95.02928 3091 ft 164 kts 70°
2026-04-23 03:13 29.42305 -95.01691 3097 ft 155 kts 115°
2026-04-23 03:13 29.41613 -95.00784 3116 ft 148 kts 137°
2026-04-23 03:14 29.40860 -94.99987 3101 ft 146 kts 138°
2026-04-23 03:14 29.40079 -94.99191 2937 ft 154 kts 139°
2026-04-23 03:14 29.39260 -94.98373 2755 ft 159 kts 139°
2026-04-23 03:14 29.38424 -94.97551 2558 ft 161 kts 140°
2026-04-23 03:15 29.37559 -94.96709 2339 ft 163 kts 140°
2026-04-23 03:15 29.36710 -94.95889 2143 ft 161 kts 140°
2026-04-23 03:15 29.35849 -94.95060 1914 ft 160 kts 140°
2026-04-23 03:15 29.35007 -94.94252 1797 ft 152 kts 140°
2026-04-23 03:16 29.34238 -94.93515 1778 ft 140 kts 140°
2026-04-23 03:16 29.33511 -94.92819 1779 ft 131 kts 140°
2026-04-23 03:16 29.32143 -94.91544 1620 ft 119 kts 139°
2026-04-23 03:17 29.31504 -94.90920 1490 ft 121 kts 140°
2026-04-23 03:17 29.30846 -94.90307 1359 ft 125 kts 141°
2026-04-23 03:17 29.30162 -94.89648 1195 ft 130 kts 139°
2026-04-23 03:17 29.29482 -94.88964 1015 ft 133 kts 139°
2026-04-23 03:18 29.28764 -94.88273 794 ft 137 kts 140°
2026-04-23 03:18 29.28019 -94.87573 489 ft 136 kts 141°
2026-04-23 03:18 29.27327 -94.86918 146 ft 123 kts 139°
2026-04-23 03:18 29.26723 -94.86345 9 ft 100 kts 141°
2026-04-23 03:19 29.26241 -94.85874 10 ft 80 kts 143°
2026-04-23 03:19 29.25988 -94.85645 10 ft 9 kts 141°
2026-04-23 03:19 29.25943 -94.85563 10 ft 12 kts 57°
2026-04-23 03:19 29.26053 -94.85547 10 ft 20 kts 356°
2026-04-23 03:20 29.26194 -94.85644 10 ft 27 kts 316°
2026-04-23 03:20 29.26339 -94.85770 10 ft 18 kts 328°
2026-04-23 03:20 29.26412 -94.85911 10 ft 24 kts 340°
2026-04-23 03:20 29.26598 -94.85919 10 ft 30 kts
2026-04-23 03:21 29.26785 -94.85907 10 ft 16 kts 33°
2026-04-23 03:21 29.26795 -94.85757 10 ft 23 kts 106°
2026-04-23 03:21 29.26722 -94.85654 10 ft 11 kts 124°
2026-04-23 03:21 29.26729 -94.85590 10 ft 7 kts 350°
2026-04-23 03:22 29.26740 -94.85609 10 ft 0 kts 276°